Regional Weather Roundup
Issued by NWS

Home | Current Version | Previous Version | Graphics & Text | Print | Product List | Glossary On
Versions: 1 2 3 4 5 6 7 8 9 10 11 12 13 14 15 16 17 18 19 20 21 22 23 24 25 26 27 28 29 30 31 32 33 34 35 36 37 38 39 40 41 42 43 44 45 46 47 48 49 50
000
ASUS43 KIND 180009
RWRIN

WEATHER ROUNDUP FOR INDIANA
NATIONAL WEATHER SERVICE INDIANAPOLIS IN
700 PM EST TUE JAN 17 2017

NOTE: "FAIR" INDICATES FEW OR NO CLOUDS BELOW 12,000 FEET WITH NO
SIGNIFICANT WEATHER AND/OR OBSTRUCTIONS TO VISIBILITY.

* - STATION DOES NOT REPORT WEATHER SUCH AS PRECIPITATION OR FOG.

+ - STATION NOT QUALITY CONTROLLED BY THE NATIONAL WEATHER SERVICE.
    USE DATA WITH CAUTION...ESPECIALLY DEWPOINT AND RELATIVE
    HUMIDITY OBSERVATIONS.

INZ001>003-010>013-019-020-180100-
NORTHWEST INDIANA

CITY           SKY/WX    TMP DP  RH WIND       PRES   REMARKS
GARY /AIRPORT/ CLOUDY    37  36  93 W14       29.97R
KNOX *+        CLOUDY    36  30  80 W12       29.97R
LA PORTE +     CLOUDY    36  36  98 W8        29.95R FOG
6HR MIN TEMP:  36; 6HR MAX TEMP:  39;

MICHIGAN CITY+ CLOUDY    36  36 100 W6        29.96R FOG
MONTICELLO +   CLOUDY    38  37  94 W12G17    30.00R FOG
6HR MIN TEMP:  38; 6HR MAX TEMP:  42;

RENSSELAER +   CLOUDY    36  36 100 W15G22    30.00R FOG
VALPARAISO     CLOUDY    38  37  97 W12       29.97R FOG
6HR MIN TEMP:  38; 6HR MAX TEMP:  41; 6HR PCP: TRACE;


$$

LMZ046-743>745-180100-
SOUTHERN LAKE MICHIGAN

STATION/POSITION TIME  TEMP    WIND        PRES    WAVE
                       AIR SEA DIR/SP/G            HT
                 (UTC) (F)     (DEG/KT/KT) (MB)    (FT)
BURNS HARBOR     2340   36     240/ 14/ 17 1015.2R

$$

INZ004-005-014>016-021>024-180100-
NORTH CENTRAL INDIANA

CITY           SKY/WX    TMP DP  RH WIND       PRES   REMARKS
ELKHART        CLOUDY    37  37 100 W15G22    29.94R FOG
GOSHEN         CLOUDY    38  35  89 W12       29.93R
6HR MIN TEMP:  38; 6HR MAX TEMP:  43;

LOGANSPORT +   DRIZZLE   37  37 100 W15       30.00R
PERU/GRISSOM   DRIZZLE   40  40 100 W17       29.96R
6HR MIN TEMP:  40; 6HR MAX TEMP:  45; 6HR PCP: TRACE;

ROCHESTER +    CLOUDY    41  41 100 W7        29.98R FOG
SOUTH BEND     CLOUDY    37  36  96 SW12      29.94R FOG
6HR MIN TEMP:  37; 6HR MAX TEMP:  41;

WARSAW +       DRIZZLE   37  34  87 W12       29.94R

$$

INZ006>009-017-018-025>027-180100-
NORTHEAST INDIANA

CITY           SKY/WX    TMP DP  RH WIND       PRES   REMARKS
ANGOLA *+      CLOUDY    39  39 100 W8        29.91R
AUBURN +       CLOUDY    39  37  93 W10G16    29.93R FOG
FORT WAYNE     DRIZZLE   42  40  92 W15G21    29.95R FOG
6HR MIN TEMP:  42; 6HR MAX TEMP:  50; 6HR PCP: TRACE;

HUNTINGTON +   CLOUDY    41  40  95 W14G21    29.95R
6HR MIN TEMP:  41; 6HR MAX TEMP:  48;

KENDALLVILLE + CLOUDY    39  39 100 W14G22    29.92R

$$

INZ028-029-035-036-043>045-051>053-180100-
WEST CENTRAL INDIANA

CITY           SKY/WX    TMP DP  RH WIND       PRES   REMARKS
CRAWFORDSVL +  CLOUDY    39  39 100 W10       30.02R FOG
6HR MIN TEMP:  39; 6HR MAX TEMP:  42;

GREENCASTLE +  CLOUDY    41  41 100 SW5       30.04R FOG
LAFAYETTE      CLOUDY    38  38 100 W13       30.01R FOG
6HR MIN TEMP:  38; 6HR MAX TEMP:  43;

TERRE HAUTE    CLOUDY    43  41  93 W8        30.05R
6HR MIN TEMP:  43; 6HR MAX TEMP:  46;


$$

INZ030>032-037>040-046>048-054>057-064-065-180100-
CENTRAL INDIANA

CITY           SKY/WX    TMP DP  RH WIND       PRES   REMARKS
CP ATTERBURY + CLOUDY    45  41  87 W7        30.05R
COLUMBUS       CLOUDY    45  45 100 SW9       30.04R
FRANKFORT +    CLOUDY    43  41  92 W20       30.02R FOG
6HR MIN TEMP:  43; 6HR MAX TEMP:  46;

GREENWOOD *+   CLOUDY    44  43  97 W7G17     30.03R
6HR MIN TEMP:  44; 6HR MAX TEMP:  47;

INDIANAPOLIS   DRIZZLE   43  41  93 W13       30.02R
6HR MIN TEMP:  43; 6HR MAX TEMP:  47; 6HR PCP: TRACE;

-EAGLE CREEK   CLOUDY    43  40  89 W8        30.01R
6HR MIN TEMP:  43; 6HR MAX TEMP:  47;

KOKOMO +       LGT RAIN  42  41  96 W9        29.99R FOG
6HR MIN TEMP:  42; 6HR MAX TEMP:  45; 6HR PCP:  0.01;

MARION +       CLOUDY    43  41  93 W15       29.98R
MT COMFORT *+  CLOUDY    43  39  87 W14       30.01R
SHELBYVILLE    CLOUDY    46  40  79 W14       30.02R
6HR MIN TEMP:  46; 6HR MAX TEMP:  50;

ZIONSVILLE +   CLOUDY    41  40  97 W10G16    30.01R FOG
6HR MIN TEMP:  41; 6HR MAX TEMP:  46;


$$

INZ033-034-041-042-049-050-058-059-180100-
EAST CENTRAL INDIANA

CITY           SKY/WX    TMP DP  RH WIND       PRES   REMARKS
MUNCIE         CLOUDY    44  41  89 W12G22    29.97R
6HR MIN TEMP:  44; 6HR MAX TEMP:  49; 6HR PCP: TRACE;


$$

INZ060-061-067>069-081>083-085>088-180100-
SOUTHWEST INDIANA

CITY           SKY/WX    TMP DP  RH WIND       PRES   REMARKS
EVANSVILLE     CLOUDY    45  39  79 W8        30.12R
6HR MIN TEMP:  45; 6HR MAX TEMP:  51;

HUNTINGBURG *+ CLOUDY    45  40  82 W9        30.09S
6HR MIN TEMP:  45; 6HR MAX TEMP:  50;

WASHINGTON +   CLOUDY    44  42  94 W7        30.08R
6HR MIN TEMP:  44; 6HR MAX TEMP:  47;


$$

INZ062-063-066-070>080-084-089>092-180100-
SOUTH CENTRAL AND SOUTHEAST INDIANA

CITY           SKY/WX    TMP DP  RH WIND       PRES   REMARKS
BLOOMINGTON    CLOUDY    44  40  85 W7        30.04R FOG
6HR MIN TEMP:  44; 6HR MAX TEMP:  47;

MADISON *+     CLOUDY    46  41  81 W9        30.07R
NORTH VERNON + CLOUDY    46  45  93 SW10G16   30.04R
SEYMOUR +      CLOUDY    46  41  81 SW9       30.06R

$$





USA.gov is the U.S. government's official web portal to all federal, state and local government web resources and services.